Tracking 31027 objects as of 19-Jul-2025
HD Live streaming from Space Station
objects crossing your sky now

DMSP 5D-2 F13 DEB

Track DMSP 5D-2 F13 DEB now!
10-day predictions


NORAD ID: 42270
Int'l Code: 1995-015GL
Perigee: 450.4 km
Apogee: 470.0 km
Inclination: 98.8 °
Period: 93.6 minutes
Semi major axis: 6831 km
RCS: Unknown
Launch date: March 24, 1995
Source: United States (US)
Launch site: AIR FORCE WESTERN TEST RANGE (AFWTR)

Note: This is SATELLITE DEBRIS
Your satellite tracking list
FENGYUN 1C DEB
Track 1 satellite(s)




NASA's NSSDC Master Catalog

Two Line Element Set (TLE):
1 42270U 95015GL  25199.43123680  .00534218  00000-0  13462-1 0  9998
2 42270  98.7873 257.9949 0014321 236.7211 123.2658 15.37644591525191
Source of the keplerian elements: AFSPC